LWSKLATI

Guest
Details From LWSK - Skopje
To LATI - Tirana Rinas
Flight Number -
Tags decoded
Created
Modified
Stats Distance 132 nm / 245 km
Max Altitude 0 ft / 0 m
Waypoints 3
Social Downloads 0
Likes 0
Share VATSIM

Download

Looking for another format? Having issues loading an existing format? Contact us
Advertisement - Login to hide

Notes

Requested: LWSK PETAK LATI

Route

LWSK PETAK LATI

ID Type Via Altitude Latitude Longitude Leg Dist Tot Dist Heading (true) Name
O LWSK APT - 0 ft / 0 m 41.96162˚ 21.62137˚ - 0 nm - Skopje
PETAK FIX - 0 ft / 0 m 41.77528˚ 19.31389˚ 103 nm 103 nm 265° / 263° -
O LATI APT - 0 ft / 0 m 41.41473˚ 19.72057˚ 28 nm 132 nm 140° / 140° Tirana Rinas

Altitude Profile

Advertisement - Login to hide

LWSK

Details ICAO LWSK (SKP)
Name Skopje
Region Macedonia
Timezone Europe/Skopje (UTC+2.0)
Stats Elevation 781 ft / 238 m (AMSL)
Location 41.961619° 21.621372°
Runways 1
Magnetic Variation 4.624° E

METAR

LWSK 240630Z 00000KT 9999 FEW004 SCT040 OVC070 16/15 Q1017 NOSIG

Decode

TAF

TAF LWSK 240530Z 2406/2506 VRB02KT 9999 SCT010 SCT040 BKN080 TEMPO 2406/2409 RA TEMPO 2412/2418 02010KT TSRA FEW033CB BKN040

Decode

Departure Runways

ID Width Length Bearing (true) Bearing (mag) Surface Threshold Offset Overrun Length
16 140 ft / 43 m 8,036 ft / 2,449 m 165.46° 160.84° Asphalt 0 ft / 0 m 80 ft / 24 m
34 140 ft / 43 m 8,036 ft / 2,449 m 345.47° 340.85° Asphalt 0 ft / 0 m 80 ft / 24 m

LATI

Details ICAO LATI (TIA)
Name Tirana Rinas
Region Albania
Timezone Europe/Tirane (UTC+2.0)
Stats Elevation 126 ft / 38 m (AMSL)
Location 41.414732° 19.720569°
Runways 1
Magnetic Variation 4.278° E

METAR

LATI 240650Z 16003KT 100V210 CAVOK 20/15 Q1015 NOSIG

Decode

TAF

TAF LATI 240500Z 2406/2506 VRB04KT 9999 SCT040 PROB40 TEMPO 2410/2416 34012KT 5000 TSRA FEW030CB BKN050

Decode

Destination Runways

ID Width Length Bearing (true) Bearing (mag) Surface Threshold Offset Overrun Length
18 148 ft / 45 m 8,984 ft / 2,738 m 174.31° 170.03° Asphalt 500 ft / 152 m 0 ft / 0 m
36 148 ft / 45 m 8,984 ft / 2,738 m 354.31° 350.03° Asphalt 500 ft / 152 m 0 ft / 0 m

Popular Alternatives